Location: Unspecified
(0.0000°N, 0.0000°E)
Time: 07:34:01
(UTC+00:00)

STARLINK-2763 - Pass Details

Date: 12 June 2021
Orbit: 349 x 350 km, 53.0° (Epoch: 21 June)

Event Time Altitude Azimuth Distance (km) Brightness Sun altitude
Exits shadow 04:32:44 - 151° (SSE) 1,433 5.8 -20.0°
Reaches altitude 10° 04:33:53 10° 130° (SE) 1,303 5.8 -19.7°
Maximum altitude 04:34:09 10° 125° (SE) 1,298 5.9 -19.6°
Drops below altitude 10° 04:34:25 10° 120° (ESE) 1,302 6.0 -19.6°
Sets 04:38:08 0° 70° (ENE) 2,138 8.3 -18.7°
